User: anonymous   Login
Location: Unspecified
(0.0000°N, 0.0000°E)
Time: 11:30:10
(UTC+01:00)
Language:

ARIANE 5 R/B - Orbit

View from above orbital plane
View from above orbital plane
View from above satellite
View from above satellite

Ground track
Ground track

The orbit data is extracted from the following two-line orbital elements,

1 28379U 04027B   14304.63285657 -.00000266  00000-0  24429-4 0  7208
2 28379 007.2008 297.2537 7292750 149.8666 343.0008 02.07921213 78173
Epoch (UTC): 31 October 2014 15:11:18
Eccentricity: 0.7292750
inclination: 7.2008°
perigee height: 642 km
apogee height: 38461 km
right ascension of ascending node: 297.2537°
argument of perigee: 149.8666°
revolutions per day: 2.07921213
mean anomaly at epoch: 343.0008°
orbit number at epoch: 7817

The dashed part of the orbit path shows where the satellite is in the earth's shadow,  

DLR